Regional Weather Roundup
Issued by NWS

Home | Current Version | Previous Version | Graphics & Text | Print | Product List | Glossary On
Versions: 1 2 3 4 5 6 7 8 9 10 11 12 13 14 15 16 17 18 19 20 21 22 23 24 25 26
000
ASUS45 KTFX 262310
RWRMT
MONTANA REGIONAL WEATHER ROUNDUP
NATIONAL WEATHER SERVICE GREAT FALLS MT
500 PM MDT THU MAY 26 2016

NOTE: "FAIR" INDICATES FEW OR NO CLOUDS BELOW 12000 FEET WITH NO
SIGNIFICANT WEATHER AND/OR OBSTRUCTIONS TO VISIBILITY.

MTZ001>007-043-270000-
WEST OF THE DIVIDE

CITY           SKY/WX    TMP DP  RH WIND       PRES   REMARKS
KALISPELL      CLOUDY    60  51  72 E7        29.92F
MISSOULA       MOSUNNY   63  49  60 W9        29.93F
BUTTE          CLOUDY    61  34  36 NW7       29.97S
MULLAN PASS    CLOUDY    45  41  86 VRB6      30.03F
ANACONDA         N/A     63  39  42 N9        29.94F
DEER LODGE       N/A     61  43  51 E7        29.95F
EUREKA           N/A     70  46  43 SW3       29.89F
HAMILTON         N/A     72  39  30 NW7       29.90F
LIBBY            N/A     68  43  40 S6        29.92S
$$

MTZ008-052>055-270000-
SOUTHWEST MONTANA

CITY           SKY/WX    TMP DP  RH WIND       PRES   REMARKS
BOZEMAN        CLOUDY    64  41  42 NE7       29.94F
DILLON         CLOUDY    64  33  31 N14       29.93F
W YELLOWSTONE  CLOUDY    55  36  47 SW14G23   29.99
ENNIS          MOSUNNY   63  37  39 NE10      29.99F
$$

MTZ009-010-012-014-046-048-049-054-270000-
EAST SLOPES AND CENTRAL MONTANA

CITY           SKY/WX    TMP DP  RH WIND       PRES   REMARKS
CUT BANK         N/A     63  42  46 SW5       29.89F
GREAT FALLS    CLOUDY    66  46  48 W8        29.89F
MALMSTROM AFB  SHOWER    59  47  64 S10       29.90F
HELENA         CLOUDY    61  48  62 SE10      29.95F
CHOTEAU          N/A     57  50  77 NE7       29.92F
$$

MTZ011-013-016-021-045-047-050-051-270000-
NORTH CENTRAL MONTANA

CITY           SKY/WX    TMP DP  RH WIND       PRES   REMARKS
HAVRE            N/A    N/A N/A N/A MISG      29.88F
LEWISTOWN      MOSUNNY   64  44  48 N12G17    29.91S
N BAR RANCH    CLOUDY    57  43  58 N10G20    29.93S
CHINOOK          N/A     64  46  52 N9        29.88F
$$

MTZ017>020-022>027-061-062-270000-
NORTHEAST MONTANA

CITY           SKY/WX    TMP DP  RH WIND       PRES   REMARKS
GLASGOW        CLOUDY    59  53  80 NW6       29.79F
JORDAN           N/A     59  50  72 W10       29.84S
SIDNEY         CLOUDY    65  48  54 NW9       29.79R
WOLF POINT     CLOUDY    66  51  58 SW8       29.79F
$$

MTZ028>42-056>058-270000-
SOUTHCENTRAL AND SOUTHEAST MONTANA

CITY           SKY/WX    TMP DP  RH WIND       PRES   REMARKS
BAKER          CLOUDY    56  44  64 W16G28    29.86F
BILLINGS       MOSUNNY   67  41  38 W12G17    29.89F
LIVINGSTON     LGT RAIN  53  45  74 W3        29.98R
MILES CITY     CLOUDY    65  45  48 NW15      29.83F
FORSYTH          N/A     63  45  51 W13       29.84F
$$

REGIONAL REPORTS...DAKOTAS

CITY           SKY/WX    TMP DP  RH WIND       PRES   REMARKS
WILLISTON      CLOUDY    66  51  58 N9        29.78F
MINOT          PTSUNNY   64  53  67 N16       29.76F
DICKINSON      CLOUDY    60  41  49 W16       29.80R
CROSBY         LGT RAIN  55  55 100 NE15G21   29.84S
WATFORD CITY   CLOUDY    55  52  88 W12       29.81S
BISMARCK       MOSUNNY   71  49  45 NW15G23   29.75F
GRAND FORKS    MOSUNNY   72  56  57 W15       29.72F
FARGO          MOSUNNY   76  50  40 W14G25    29.73F
BUFFALO SD       N/A     68  40  35 NW17G28   29.77S
RAPID CITY     MOSUNNY   67  47  48 E5        29.83F
$$

REGIONAL REPORTS...WYOMING/IDAHO/WASHINGTON

CITY           SKY/WX    TMP DP  RH WIND       PRES   REMARKS
GILLETTE       PTSUNNY   62  40  44 NW24G32   29.88S
SHERIDAN       PTSUNNY   62  43  49 W7        29.91F
BUFFALO WY     SUNNY     59  41  51 N13       29.94F
CODY           CLOUDY    55  39  54 N6        29.97R
YELLOWSTONE LA   N/A     45  34  65 VRB5      30.06F
IDAHO FALLS    MOSUNNY   67  39  35 VRB7      29.95F
SALMON         CLOUDY    70  39  32 N5        29.89F
BOISE          PTSUNNY   73  35  25 NW13      29.94F
SPOKANE        CLOUDY    64  42  44 SW14      29.97F
$$

REGIONAL REPORTS...ALBERTA

CITY           SKY/WX    TMP DP  RH WIND       PRES   REMARKS
EDMONTON       MOSUNNY   64  50  59 W6        29.80F
CALGARY        PTSUNNY   66  41  39 S7        29.83S
LETHBRIDGE     PTSUNNY   63  50  63 S10G17    29.86S
MEDICINE HAT   PTSUNNY   72  46  40 SE9       29.85S
WATERTON GATE    N/A     54  41  62 SW12G17     N/A
MILK RIVER       N/A     64  48  55 W9          N/A
ONEFOUR          N/A     64  45  48 E5          N/A
$$

REGIONAL REPORTS...SASKATCHEWAN

CITY           SKY/WX    TMP DP  RH WIND       PRES   REMARKS
SWIFT CURRENT  MOSUNNY   63  46  55 E9        29.88F
REGINA         PTSUNNY   61  54  77 SW6       29.87S
SASKATOON      MOSUNNY   70  45  40 NW6       29.84F
CYPRESS HILLS    N/A     57  43  58 NE7         N/A
VAL MARIE        N/A     59  52  77 NE20G25     N/A
ROCKGLEN         N/A     54  50  87 NE6         N/A
ASSINIBOIA       N/A     68  50  52 SE7         N/A
$$




USA.gov is the U.S. government's official web portal to all federal, state and local government web resources and services.